Regional Weather Roundup
Issued by NWS State College, PA

Home | Current Version | Previous Version | Text Only | Print | Product List | Glossary On
Versions: 1 2 3 4 5 6 7 8 9 10 11 12 13 14 15 16 17 18 19 20 21 22 23 24 25 26 27 28 29 30 31 32 33 34 35 36 37 38 39 40 41 42 43 44 45 46 47 48 49 50
000
ASUS41 KCTP 011710
RWRCTP

REGIONAL WEATHER ROUNDUP
NATIONAL WEATHER SERVICE STATE COLLEGE PA
100 PM EDT TUE SEP 01 2015

Note: "fair" indicates few or no clouds below 12,000 feet with no
significant weather and/or obstructions to visibility.

* = STATION THAT DOES NOT REPORT PRECIPITATION /E.G. RAIN...SNOW...ETC/
    THUNDER OR FOG.

PAZ002>004-007>009-013>016-020>023-029>032-011800-
WESTERN PENNSYLVANIA

CITY           SKY/WX    TMP DP  RH WIND       PRES   REMARKS
ERIE           SUNNY     81  68  64 NW9       30.10F
MEADVILLE      MOSUNNY   83  65  54 W9G17     30.14F
FRANKLIN*      MOSUNNY   82  66  57 SW5       30.16S
NEW CASTLE     FAIR      85  69  58 CALM      30.13F
BEAVER COUNTY  MOSUNNY   86  66  51 W5        30.14F
BUTLER*        PTSUNNY   84  68  58 W6        30.15F
PITTSBURGH INT MOSUNNY   86  64  47 MISG      30.13F
PITTSBURGH     MOSUNNY   85  61  44 S6        30.13F
INDIANA*       PTSUNNY   82  66  57 N7        30.17S
LATROBE        MOSUNNY   82  66  57 W9        30.14F
WASHINGTON CO* MOSUNNY   86  66  51 W6        30.15S
$$

PAZ004>006-010>012-017>019-024>028-033>037-041-042-045-046-049>053-011800-
CENTRAL PENNSYLVANIA

CITY           SKY/WX    TMP DP  RH WIND       PRES   REMARKS
BRADFORD       MOSUNNY   79  61  53 W9        30.16F
DUBOIS         PTSUNNY   81  63  54 NW7       30.14F
CLEARFIELD     MOSUNNY   82  63  52 NW7       30.14F
JOHNSTOWN      PTSUNNY   80  64  58 NW9       30.18F
ALTOONA        MOSUNNY   84  63  49 NW7       30.14F
STATE COLLEGE  MOSUNNY   82  66  57 NW9       30.12F
WILLIAMSPORT   MOSUNNY   83  66  56 SW5       30.07F
SELINSGROVE    PTSUNNY   84  67  56 N7        30.09F
FT INDIANTOWN  SUNNY     84  64  50 VRB5      30.07F
CAPITAL CITY   SUNNY     86  59  39 NW9       30.06F
HARRISBURG     SUNNY     88  59  37 NW10      30.05F
YORK             N/A    N/A N/A N/A MISG      30.07F
$$

PAZ038>040-043-044-047-048-054-055-060>062-067>071-011800-
EASTERN PENNSYLVANIA

CITY           SKY/WX    TMP DP  RH WIND       PRES   REMARKS
SCRANTON       MOSUNNY   83  64  52 N6        30.09F
MOUNT POCONO   MOSUNNY   77  61  57 N7        30.13F
ALLENTOWN      SUNNY     86  64  47 N6        30.07F
QUAKERTOWN*    PTSUNNY   84  64  51 N3        30.08F
READING        MOSUNNY   86  65  49 CALM      30.05F
LANCASTER      SUNNY     86  63  45 NW7       30.06F
COATESVILLE    SUNNY     86  61  42 CALM      30.08F
POTTSTOWN      SUNNY     85  66  53 NW5       30.07F
BLUE BELL      MOSUNNY   88  68  51 NE6       30.05F
DOYLESTOWN     MOSUNNY   85  65  51 NW8       30.06F
WILLOW GROVE   NOT AVBL
NORTH PHILA    MOSUNNY   90  64  42 NW7       30.06F
PHILADELPHIA   MOSUNNY   89  64  43 S7        30.04F
$$



USA.gov is the U.S. government's official web portal to all federal, state and local government web resources and services.